Weather History for Point Salines, Grenada

Change the Weather History Date:

Friday, September 7, 2012

  Actual Average Record
Temperature  
Mean Temperature 83 °F -  
Max Temperature 89 °F 85 °F 89 °F (1998)
Min Temperature 77 °F 76 °F 75 °F (2003)
Cooling Degree Days 18    
Growing Degree Days 33 (Base 50)    
Moisture  
Dew Point 77 °F    
Average Humidity 78    
Maximum Humidity 89    
Minimum Humidity 65    
Precipitation  
Precipitation 0.00 in - - ()
Sea Level Pressure  
Sea Level Pressure 29.94 in    
Wind  
Wind Speed 6 mph ()    
Max Wind Speed 13 mph    
Max Gust Speed -    
Visibility 7.1 miles    
Events      
Averages and records for this station are not official NWS values.
T = Trace of Precipitation, MM = Missing Value Source: Averaged Metar Reports

Daily Weather History Graph

Daily Weather History Graph

Search for Another Location

Airport:

Trip Planner

Search our weather history database for the weather conditions in past years. The results will help you decide how hot, cold, wet, or windy it might be!

Date:

Astronomy

Sep. 07, 2012 Rise Set
Actual Time 5:56 AM AST 6:13 PM AST
Civil Twilight 5:35 AM AST 6:34 PM AST
Nautical Twilight 5:10 AM AST 6:59 PM AST
Astronomical Twilight 4:45 AM AST 7:23 PM AST
Moon 11:18 PM AST (9/7) 11:31 AM AST (9/7)
Length of Visible Light 12h 59m
Length of Day
12h 16m
Waning Gibbous, 58% of the Moon is Illuminated
Sep 7
Waning Gibbous
Sep 8
Last Quarter
Sep 15
New
Sep 22
First Quarter
Sep 29
Full

Hourly Weather History & Observations

Time (AST) Temp. Heat Index Dew Point Humidity Pressure Visibility Wind Dir Wind Speed Gust Speed Precip Events Conditions
12:00 AM 80.6 °F 86.2 °F 75.2 °F 84% 29.98 in 6.2 mi Calm Calm - N/A   Partly Cloudy
1:00 AM 80.6 °F 86.2 °F 75.2 °F 84% 29.95 in 6.2 mi Variable 2.3 mph - N/A   Partly Cloudy
2:00 AM 82 °F - 77 °F 79% 29.94 in 14 mi East 6.9 mph - -   Widespread Dust
2:00 AM 82.4 °F 90.9 °F 77.0 °F 84% 29.92 in 6.2 mi East 6.9 mph - N/A   Partly Cloudy
3:00 AM 82.4 °F 90.9 °F 77.0 °F 84% 29.92 in 6.2 mi ESE 5.8 mph - N/A   Partly Cloudy
4:00 AM 82.4 °F 90.9 °F 77.0 °F 84% 29.92 in 6.2 mi ESE 5.8 mph - N/A   Partly Cloudy
5:00 AM 81 °F - 76 °F 82% 29.93 in 14 mi ESE 5.8 mph - -   Widespread Dust
5:00 AM 80.6 °F 87.1 °F 77.0 °F 89% 29.92 in 6.2 mi ESE 5.8 mph - N/A   Partly Cloudy
6:00 AM 82.4 °F 90.9 °F 77.0 °F 84% 29.92 in 6.2 mi ESE 6.9 mph - N/A   Scattered Clouds
7:00 AM 82.4 °F 90.9 °F 77.0 °F 84% 29.95 in 6.2 mi SE 9.2 mph - N/A   Scattered Clouds
8:00 AM 85 °F - 78 °F 74%  in 9 mi SSE 9.2 mph - -   Partly Cloudy
8:00 AM 86.0 °F 99.3 °F 78.8 °F 79% 29.98 in 6.2 mi SSE 9.2 mph - N/A   Scattered Clouds
9:00 AM 86.0 °F 96.9 °F 77.0 °F 74% 29.98 in 6.2 mi SSE 10.4 mph - N/A   Scattered Clouds
10:00 AM 86.0 °F 96.9 °F 77.0 °F 74% 30.01 in 6.2 mi SSE 10.4 mph - N/A   Partly Cloudy
11:00 AM 87 °F - 78 °F 68% 29.99 in 10 mi SSE 9.2 mph - -   Widespread Dust
11:00 AM 87.8 °F 102.5 °F 78.8 °F 75% 29.98 in 6.2 mi SSE 9.2 mph - N/A   Partly Cloudy
12:00 PM 86.0 °F 96.9 °F 77.0 °F 74% 29.98 in 6.2 mi SSE 10.4 mph - N/A   Scattered Clouds
1:00 PM 87.8 °F 99.7 °F 77.0 °F 70% 29.95 in 6.2 mi SSE 11.5 mph - N/A   Scattered Clouds
2:00 PM 87 °F - 77 °F 65% 29.93 in 10 mi SSE 12.7 mph - -   Widespread Dust
2:00 PM 87.8 °F 99.7 °F 77.0 °F 70% 29.92 in 6.2 mi SSE 12.7 mph - N/A   Scattered Clouds
3:00 PM 87.8 °F 99.7 °F 77.0 °F 70% 29.92 in 6.2 mi SSE 9.2 mph - N/A   Scattered Clouds
4:00 PM 87.8 °F 99.7 °F 77.0 °F 70% 29.89 in 6.2 mi SE 9.2 mph - N/A   Scattered Clouds
5:00 PM 84.2 °F 92.3 °F 75.2 °F 74% 29.89 in 6.2 mi ESE 9.2 mph - N/A   Scattered Clouds
6:00 PM 84.2 °F 92.3 °F 75.2 °F 74% 29.89 in 6.2 mi ESE 5.8 mph - N/A   Partly Cloudy
7:00 PM 82.4 °F 89.5 °F 75.2 °F 79% 29.89 in 6.2 mi East 8.1 mph - N/A   Partly Cloudy
8:00 PM 82.4 °F 89.5 °F 75.2 °F 79% 29.95 in 6.2 mi ESE 6.9 mph - N/A   Partly Cloudy
10:00 PM 82.4 °F 89.5 °F 75.2 °F 79% 29.98 in 6.2 mi Variable 2.3 mph - N/A   Partly Cloudy
11:00 PM 80.6 °F 86.2 °F 75.2 °F 84% 29.98 in 6.2 mi East 9.2 mph - N/A   Partly Cloudy